Temp
69 62 58 63 66 67 65 62 62 70 78 75 74 74 78 82 80 82 86 88 90 91 95 99 99 97 96 93 90 89 89 90 89 91 90 92 91 92 92 92 90 88 86 85
63 57 65 67 66 63 62 59 59 67 73 72 73 73 79 82 81 81 83 87 88 90 93 94 95 94 92 90 89 88 89 88 88 89 87 93 94 95 92 92 88 87 85 84
57 62 67 65 63 59 60 57 58 59 67 71 69 67 73 81 84 84 85 87 89 89 89 91 92 92 92 90 88 88 87 86 87 87 90 89 90 91 90 89 86 85 85 84
59 65 62 60 59 61 54 64 62 59 58 53 68 54 66 74 77 81 82 84 87 89 90 90 90 90 90 90 92 91 88 87 88 88 86 85 86 86 88 89 88 86 85 80
55 57 58 57 59 63 57 65 61 60 56 56 59 58 65 74 72 76 81 84 87 89 89 90 92 92 93 94 94 92 89 88 87 88 85 88 84 90 90 90 83 83 80 80
59 67 64 62 64 63 64 59 59 59 56 46 55 57 61 68 72 77 82 85 87 89 90 91 92 93 93 95 95 93 88 86 87 86 83 84 84 87 88 86 83 83 78 79
55 59 65 66 58 62 59 53 41 39 42 41 57 56 60 74 78 79 81 84 87 89 89 89 90 92 92 92 91 92 88 86 86 85 83 84 85 86 85 82 85 83 79 81
42 42 54 59 57 54 52 49 39 30 37 43 57 50 61 74 79 81 82 84 84 84 87 89 90 90 92 93 92 89 88 86 86 84 83 84 85 87 87 85 88 87 86 85
41 43 56 59 62 58 54 45 51 43 43 34 45 59 68 74 75 78 81 80 80 81 83 86 88 88 89 90 90 89 89 87 85 85 84 84 84 86 86 84 84 86 85 84
51 41 54 58 61 60 56 60 42 47 34 31 44 48 57 66 71 76 77 78 79 81 84 85 85 83 85 89 90 89 89 86 85 85 84 84 85 86 84 83 84 84 84 84
56 48 49 54 48 48 54 50 51 49 46 35 39 49 66 70 72 74 78 78 78 80 84 85 83 80 83 90 90 87 87 85 84 84 85 84 84 84 83 83 83 82 82 82
56 46 43 48 60 60 56 52 48 41 43 48 44 45 70 74 77 78 76 77 78 81 84 87 83 79 86 87 87 86 86 86 86 86 85 83 83 83 81 81 82 82 81 83
50 45 37 44 47 56 50 53 50 49 43 41 40 44 70 73 74 75 75 76 76 78 82 86 84 80 85 86 86 86 86 87 87 86 84 82 81 81 80 80 81 82 81 82
52 46 40 36 42 38 37 46 54 50 35 46 50 46 60 69 71 74 74 76 76 77 80 83 84 79 82 87 87 86 87 87 86 86 84 81 80 80 80 81 80 81 82 81
48 39 45 49 52 51 52 52 54 52 53 46 52 47 49 58 67 73 74 74 75 77 80 81 82 79 81 76 86 87 87 87 86 85 83 80 81 81 81 81 81 81 81 82
50 39 46 45 53 54 51 55 55 55 55 54 56 55 66 68 72 71 72 73 74 76 78 81 82 78 74 74 80 84 85 86 86 84 82 82 82 82 78 76 78 80 80 81
42 41 40 38 49 49 45 52 55 56 58 56 51 60 68 67 68 70 72 73 74 76 77 79 81 78 76 74 76 82 84 86 84 83 83 83 82 79 75 76 75 78 78 75
39 42 42 39 43 29 50 58 57 54 56 53 55 61 64 66 69 71 75 75 75 77 77 79 82 78 77 75 78 83 86 85 85 84 84 84 84 81 79 75 75 77 76 76
44 37 34 32 32 41 46 49 48 44 48 57 56 61 64 66 67 66 74 76 77 77 79 81 83 78 78 74 77 84 85 85 85 84 84 85 85 82 81 76 76 75 74 73
44 39 34 37 29 27 39 46 51 51 39 50 51 51 52 54 46 65 70 75 78 79 80 80 81 79 76 74 77 84 84 84 84 86 86 87 86 83 78 74 75 76 75 74
41 34 32 35 31 40 43 47 51 33 39 48 52 54 53 48 57 63 67 68 74 76 77 80 81 74 79 74 75 83 83 83 87 88 88 86 79 78 75 75 77 75 73 73
35 37 36 36 33 31 50 52 36 48 51 49 50 51 50 57 57 60 65 67 70 72 77 81 82 74 77 74 75 83 81 86 88 88 87 83 75 77 79 75 73 72 71 71
40 45 37 37 41 54 56 53 52 49 45 47 48 54 55 53 55 59 62 67 70 73 77 82 79 73 72 76 80 83 83 87 88 86 84 80 76 75 76 75 71 72 73 72
52 55 45 44 52 54 57 56 52 48 46 48 49 50 51 51 55 60 63 68 72 75 78 81 75 72 71 76 82 85 86 88 87 84 83 80 74 72 75 73 73 72 72 73
52 50 47 48 53 55 56 54 49 47 48 48 51 52 52 51 57 62 66 69 73 77 80 78 75 72 74 78 85 86 87 88 84 83 82 81 73 77 75 74 71 72 72 68
52 50 44 39 52 53 53 50 49 47 46 48 47 49 54 55 56 61 65 68 69 73 73 73 73 77 78 85 86 86 88 87 83 81 82 83 82 82 79 75 71 43 45 43
MSLP
1006.66 1006.18 1005.11 1004.65 1003.99 1002.99 1002.23 1001.34 999.45 997.87 997.33 997.29 995.92 995.17 994.76 995.65 996.39 996.02 995.31 995.24 995.11 995.25 995.72 995.75 996.26 997.24 998.28 999.18 999.62 1000.02 1000.30 1000.18 1000.60 1000.53 1000.63 1000.47 1000.53 1000.80 1001.11 1001.52 1001.88 1002.44 1003.31 1003.93
1006.39 1004.96 1004.91 1004.75 1004.27 1003.83 1002.84 1001.88 1000.15 999.34 998.24 997.38 995.77 994.42 993.58 994.24 994.56 995.34 995.07 994.28 994.63 994.85 995.14 995.52 996.19 997.05 997.95 998.58 998.97 999.46 999.69 999.73 1000.10 1000.08 1000.22 999.84 999.56 999.77 1000.59 1001.18 1001.78 1002.32 1002.95 1003.49
1005.54 1004.77 1004.62 1004.14 1003.51 1003.25 1002.52 1002.00 1001.12 999.99 999.27 998.38 996.51 994.34 993.21 992.98 993.38 994.05 994.38 994.26 994.15 994.40 994.80 995.19 995.66 996.34 997.17 997.73 998.10 998.52 998.97 999.18 999.47 999.55 999.49 1000.00 1000.23 999.94 1000.33 1000.87 1001.59 1002.19 1002.62 1003.14
1005.49 1004.91 1004.32 1003.85 1003.30 1003.15 1002.01 1002.22 1001.85 1000.97 1000.15 998.09 996.64 994.03 993.29 992.82 992.47 992.73 993.38 993.68 993.64 993.81 994.18 994.89 995.30 995.70 996.22 996.84 997.18 997.25 997.94 998.37 998.58 998.82 999.13 999.40 999.63 999.56 999.87 1000.41 1000.93 1001.68 1002.36 1003.22
1005.57 1004.85 1003.84 1003.04 1002.74 1002.68 1001.89 1002.04 1001.77 1001.33 1000.55 999.30 996.83 994.62 992.34 992.45 991.65 991.85 992.27 992.35 992.45 993.05 993.90 993.98 994.24 994.49 995.12 995.41 995.72 996.31 996.89 997.38 997.59 997.81 998.56 998.83 999.41 999.17 999.56 999.96 1000.75 1001.46 1002.34 1003.05
1005.42 1004.63 1003.77 1002.93 1002.84 1003.10 1002.92 1002.59 1001.75 1001.25 1000.38 998.39 996.81 994.81 992.13 991.43 990.98 990.81 990.78 991.26 991.68 992.22 992.67 993.08 993.41 993.85 993.84 994.17 994.55 995.02 995.69 996.50 997.02 997.47 998.20 998.48 998.77 998.69 999.17 999.74 1000.77 1001.41 1002.48 1002.85
1005.51 1003.67 1002.98 1002.77 1002.89 1003.13 1003.32 1002.49 1001.56 1000.63 999.08 997.60 997.39 995.04 992.73 990.83 990.42 990.46 990.22 990.83 991.23 991.79 992.21 992.69 992.91 992.91 992.86 993.22 993.73 994.24 995.00 995.76 996.39 997.17 997.76 998.33 998.49 998.77 999.22 1000.02 1000.17 1000.70 1002.05 1002.49
1006.15 1004.72 1004.71 1004.35 1003.79 1003.11 1002.63 1003.32 1002.21 1001.33 999.43 998.59 997.02 993.59 992.39 991.80 991.19 991.36 991.15 991.05 991.38 992.25 992.51 992.49 992.52 992.35 992.06 992.35 993.07 993.93 994.51 995.09 996.11 996.75 997.54 998.02 998.31 998.86 999.22 999.65 999.56 1000.07 1000.72 1001.47
1006.69 1005.84 1005.73 1004.71 1003.59 1004.06 1002.40 1002.52 1003.32 1002.14 1001.61 1000.32 997.23 993.51 992.92 991.80 991.35 991.20 991.21 992.21 992.33 992.81 992.79 992.71 992.35 992.35 992.32 992.40 992.71 993.47 993.75 994.55 995.76 996.47 997.30 997.85 998.49 998.54 998.85 999.29 1000.03 1000.28 1000.68 1001.67
1007.02 1005.84 1005.54 1004.33 1004.20 1003.53 1002.91 1002.13 1003.04 1001.38 1000.49 999.45 996.53 993.43 990.40 990.13 990.20 990.77 991.41 992.06 992.75 993.11 992.68 992.44 992.67 992.90 992.86 992.43 992.63 993.10 993.51 994.55 995.67 996.51 997.27 997.86 998.21 998.62 999.20 999.94 999.85 1000.42 1000.99 1001.63
1007.03 1006.64 1005.02 1004.87 1004.22 1003.16 1002.32 1001.91 1002.53 1002.94 1001.22 999.86 996.59 992.94 990.81 989.25 990.37 990.59 991.05 991.95 993.02 993.06 992.51 992.06 992.74 993.29 992.93 992.09 992.43 993.05 993.71 994.75 995.78 996.64 997.26 997.87 998.41 999.02 999.71 999.89 1000.37 1000.95 1001.53 1001.97
1007.40 1007.59 1005.69 1003.94 1002.34 1003.17 1002.86 1002.40 1002.80 1002.80 1000.63 999.50 998.31 994.52 990.73 989.10 988.43 990.41 991.85 992.82 993.49 993.56 992.68 991.82 992.56 993.00 992.01 992.13 992.66 993.30 993.89 994.77 995.91 996.62 997.34 998.15 998.82 999.36 999.79 1000.12 1000.63 1001.20 1001.72 1002.09
1009.17 1007.63 1006.24 1003.68 1003.45 1003.04 1003.05 1002.67 1002.53 1002.88 1003.25 1000.22 998.33 996.25 991.97 990.68 991.06 991.97 992.81 993.63 994.01 994.07 993.12 992.04 992.14 992.90 992.01 992.17 992.86 993.39 994.17 994.92 995.79 996.70 997.63 998.43 999.01 999.54 999.89 1000.32 1000.81 1001.33 1001.83 1002.07
1009.68 1008.48 1007.38 1005.21 1003.26 1005.09 1004.84 1003.13 1001.83 1001.86 1001.95 999.29 997.28 997.45 994.25 991.84 991.89 992.60 993.24 993.67 994.21 994.01 993.07 992.40 992.15 993.10 992.93 992.35 992.88 993.60 994.20 995.08 996.07 996.87 997.70 998.49 999.13 999.61 1000.00 1000.52 1001.03 1001.35 1001.77 1002.08
1009.32 1008.27 1007.03 1005.39 1003.99 1003.25 1002.22 1001.46 1000.92 1000.18 999.67 998.39 996.73 997.52 997.25 995.45 993.72 992.90 993.70 994.35 994.13 993.68 992.97 992.82 992.74 993.29 993.35 993.63 993.04 993.67 994.42 995.34 996.16 996.87 997.75 998.63 999.29 999.73 1000.15 1000.59 1000.97 1001.42 1001.74 1002.00
1009.04 1008.17 1006.99 1005.08 1003.64 1002.34 1001.35 1000.61 1000.30 999.89 999.27 997.76 997.37 996.19 995.97 995.92 995.00 994.30 994.22 994.26 993.96 993.66 993.54 993.34 993.11 993.37 994.11 994.24 993.59 993.95 994.72 995.50 996.28 996.99 997.90 998.71 999.10 999.59 1000.26 1000.89 1001.18 1001.48 1001.83 1002.00
1009.63 1008.69 1007.44 1005.42 1003.70 1002.53 1000.91 999.97 999.21 999.13 998.89 998.64 996.50 995.88 995.50 994.96 994.62 994.37 994.25 994.09 993.93 993.89 993.94 993.55 993.42 993.49 994.24 994.85 994.64 994.42 994.91 995.65 996.37 997.09 997.89 998.38 998.90 999.67 1000.65 1001.12 1001.52 1001.68 1001.95 1002.47
1009.62 1009.05 1008.06 1006.22 1004.81 1003.40 1001.01 1000.61 1000.46 999.91 999.60 1000.28 999.53 997.36 996.76 996.15 995.44 995.31 994.65 994.12 993.97 993.89 993.89 993.75 993.35 993.50 994.07 994.96 994.99 994.60 995.06 995.73 996.34 996.91 997.52 998.18 998.70 999.56 1000.31 1001.09 1001.46 1001.73 1002.34 1002.72
1009.51 1009.43 1008.75 1007.32 1005.70 1003.93 1002.85 1002.71 1002.68 1002.56 1001.26 1000.75 1000.10 999.13 998.01 997.54 996.80 995.61 994.95 994.36 993.97 993.99 994.00 993.66 993.50 993.47 994.15 994.90 995.15 994.72 995.08 995.68 996.06 996.66 997.31 997.90 998.37 999.23 999.95 1000.74 1001.47 1002.00 1002.69 1003.23
1008.88 1009.46 1009.22 1007.37 1005.83 1004.46 1004.09 1004.38 1004.31 1003.98 1002.39 1002.16 1002.10 1001.61 1000.99 1000.21 998.70 995.67 995.26 994.28 993.66 993.65 993.72 993.84 993.61 993.67 994.30 994.73 994.88 994.60 995.09 995.44 995.80 996.45 997.10 997.63 998.31 999.19 1000.16 1000.89 1001.58 1002.11 1002.66 1003.21
1007.67 1008.48 1008.25 1007.10 1005.85 1004.35 1004.60 1004.90 1004.65 1004.26 1003.30 1002.84 1002.45 1001.99 1001.23 1000.60 999.43 997.29 997.16 996.17 995.12 994.74 994.31 993.93 993.69 994.03 993.82 994.65 994.83 994.49 995.05 995.29 995.64 996.35 996.98 997.68 998.86 999.69 1000.51 1001.03 1001.59 1002.26 1002.81 1003.21
1006.96 1006.67 1006.30 1005.95 1004.88 1003.51 1003.91 1003.47 1004.52 1003.48 1003.05 1003.38 1002.73 1002.19 1001.65 1000.74 999.97 998.92 997.94 996.92 996.05 995.08 994.04 993.30 992.85 993.54 994.00 994.65 994.75 994.32 994.96 995.25 995.63 996.28 996.93 998.18 999.49 1000.09 1000.58 1001.35 1002.06 1002.60 1003.00 1003.32
1005.34 1005.42 1005.55 1005.61 1003.78 1002.69 1002.60 1002.79 1003.58 1003.84 1003.31 1002.78 1002.50 1001.59 1000.83 1000.58 999.94 999.18 997.97 996.68 995.76 994.68 993.63 992.87 992.50 993.31 994.13 994.41 994.29 994.19 994.91 995.20 995.61 996.27 997.11 998.54 999.73 1000.36 1000.96 1001.62 1002.34 1002.75 1003.08 1003.24
1004.48 1004.21 1004.22 1004.07 1002.49 1001.98 1001.62 1002.26 1002.99 1003.21 1002.75 1002.23 1001.61 1001.11 1000.89 1000.16 999.55 998.52 997.62 996.21 994.94 993.80 992.98 992.48 992.87 993.39 993.94 994.04 993.79 993.98 994.86 995.11 995.57 996.43 997.44 998.69 999.79 1000.58 1001.21 1002.08 1002.60 1002.70 1002.97 1003.23
1004.14 1004.25 1003.65 1002.72 1001.96 1001.60 1001.49 1001.96 1002.21 1002.08 1001.59 1001.04 1000.44 1000.16 999.62 999.58 998.47 997.52 996.15 995.21 994.21 993.11 992.10 992.10 992.69 993.10 993.51 993.59 993.31 994.04 994.74 995.03 995.74 996.77 997.67 998.40 999.89 1000.17 1001.12 1002.29 1003.29 1003.35 1003.41 1003.80
1003.83 1003.08 1003.18 1003.13 1002.18 1001.36 1001.06 1001.75 1001.94 1001.44 1001.24 1000.57 999.85 999.16 998.48 998.12 997.57 996.71 995.56 994.88 994.24 993.53 992.62 992.22 992.52 992.90 992.94 992.65 993.09 994.01 994.47 995.13 996.05 996.90 997.58 997.97 998.84 999.35 1000.32 1001.92 1003.32 1004.21 1004.51 1004.82
Wind_Speed
11 14 16 19 20 23 24 28 35 31 27 31 30 36 36 30 27 30 27 26 22 20 19 20 13 10 13 11 10 11 13 10 8 9 9 9 9 9 9 9 11 12 12 14
17 20 19 20 20 24 26 27 32 31 34 28 28 35 33 32 28 28 30 22 22 21 21 18 15 14 12 12 12 13 13 10 9 8 7 8 6 8 9 9 10 12 13 13
20 22 22 23 21 24 25 25 28 31 27 28 33 30 32 31 30 29 30 29 25 23 23 21 19 14 13 14 14 14 12 12 11 10 6 5 6 6 8 9 9 10 13 13
16 17 13 15 22 22 27 22 25 26 26 23 33 21 31 30 30 26 27 29 28 28 19 19 21 19 16 15 16 13 14 13 11 9 9 10 9 9 9 9 9 10 13 11
18 23 22 19 19 20 24 23 25 27 26 30 33 24 19 25 29 28 28 27 26 20 25 26 24 20 19 19 16 15 13 12 11 9 11 10 11 9 9 9 12 9 8 11
21 17 23 22 18 19 17 25 29 28 22 25 30 29 23 22 25 27 29 28 26 23 22 21 20 21 18 15 17 12 12 12 11 12 13 11 12 10 10 10 10 10 7 7
21 23 12 17 17 19 20 21 15 18 20 20 25 30 22 14 15 10 15 18 18 14 12 14 17 15 15 15 14 13 12 12 13 14 13 14 11 9 10 12 11 13 10 9
11 16 18 8 17 20 14 19 11 19 15 20 27 28 26 28 18 10 3 6 4 7 12 12 11 12 11 11 12 14 15 14 13 13 14 13 12 10 10 12 10 9 10 10
12 10 13 20 10 19 24 11 21 27 20 16 16 32 29 35 27 23 15 9 7 2 7 8 7 7 9 9 10 14 15 13 13 13 13 13 14 12 12 10 9 8 8 11
17 19 16 11 11 18 22 17 11 11 19 19 17 22 22 14 27 15 15 14 7 5 7 4 4 5 8 10 10 11 13 14 15 15 14 14 13 12 12 11 9 9 8 10
18 16 17 13 6 16 16 15 12 18 13 11 15 14 18 24 21 18 14 13 4 3 6 3 6 4 9 8 12 12 14 16 15 15 14 14 13 13 13 11 11 10 9 9
16 8 14 22 12 18 14 17 1 9 14 15 16 16 26 16 12 23 15 9 5 7 9 7 9 4 7 10 13 13 15 16 16 15 14 14 14 14 13 12 11 11 9 9
8 7 11 17 6 8 4 15 9 8 12 17 11 6 14 21 19 14 13 9 4 10 10 10 11 3 2 11 13 15 15 16 15 15 15 15 14 13 12 11 10 10 9 9
11 14 16 17 17 7 10 18 12 9 6 15 17 9 16 11 19 13 5 5 4 10 10 10 10 4 3 10 13 15 15 15 15 16 16 15 13 13 11 10 10 10 10 10
9 12 17 21 20 19 16 13 16 18 17 19 21 14 20 26 20 11 10 11 12 12 8 9 9 7 5 8 15 14 15 15 15 15 15 14 12 12 12 11 10 10 10 9
6 11 14 19 20 19 16 18 17 18 20 24 23 22 18 17 20 17 14 15 12 10 9 10 8 6 6 6 4 14 15 15 15 15 14 14 13 12 9 7 9 9 9 8
10 7 8 13 15 12 14 13 19 18 18 20 22 20 20 17 15 13 13 14 12 9 9 8 7 4 12 7 4 14 15 15 14 14 14 13 12 13 8 8 7 10 9 7
7 13 12 13 13 9 8 12 14 16 12 8 15 21 18 20 16 19 17 15 15 9 7 9 7 3 14 9 8 11 15 14 14 14 14 13 12 14 14 9 9 10 9 7
11 4 4 4 7 15 18 13 10 6 15 20 19 18 19 21 22 19 20 18 12 10 8 7 10 0 14 9 12 14 15 15 14 14 13 13 12 12 11 9 9 9 8 6
5 5 3 6 6 5 3 4 7 10 15 6 4 7 13 13 7 2 18 15 2 1 5 7 9 4 14 10 11 15 15 15 14 14 13 12 12 11 10 8 10 8 9 7
3 3 6 12 9 9 7 7 5 5 3 7 15 17 15 9 16 22 19 16 14 10 11 11 11 5 12 10 10 16 15 14 14 14 13 11 10 9 6 8 8 7 7 7
4 4 3 3 5 3 9 13 5 10 20 21 21 18 16 17 15 20 18 16 16 16 15 12 12 8 12 11 11 16 15 14 14 14 13 14 10 7 8 8 8 8 7 8
4 3 4 4 7 17 16 8 8 16 17 18 17 19 15 16 16 17 17 16 15 17 12 13 4 12 10 14 15 16 15 15 15 14 12 15 10 7 9 9 8 8 8 7
8 12 6 11 9 20 21 14 12 16 19 18 20 19 19 17 17 17 18 15 16 14 12 12 5 13 13 14 15 16 16 16 15 14 12 15 8 9 10 6 5 5 6 6
14 10 9 15 15 22 12 18 11 20 14 15 15 16 16 16 18 19 17 14 14 12 13 6 9 14 15 16 17 16 17 16 14 13 12 11 9 11 10 7 2 3 5 2
4 8 4 6 19 17 21 15 18 9 16 16 18 17 19 18 17 18 14 13 13 14 14 5 8 18 18 19 18 17 17 16 15 13 11 10 10 9 12 9 8 15 12 11
Wind_Direction
278 267 255 262 272 267 269 271 275 266 255 249 256 233 243 234 240 254 236 240 237 235 246 243 229 220 227 218 235 253 257 246 240 233 233 231 231 220 218 221 201 190 191 198
275 260 258 262 267 269 272 274 269 268 270 277 262 253 244 239 229 238 251 240 237 238 237 238 239 236 234 239 230 241 234 226 222 218 242 271 236 218 213 203 185 189 190 190
281 290 291 281 267 250 252 264 270 271 269 259 264 262 254 245 236 227 241 249 246 238 239 241 243 247 246 233 228 224 221 220 216 215 225 220 262 242 192 188 180 188 191 186
300 291 274 284 269 259 266 263 270 271 269 257 247 251 242 244 244 229 234 241 241 242 252 251 251 247 242 248 246 219 216 214 210 204 230 209 222 206 202 195 183 172 187 163
290 292 290 277 267 263 269 271 261 262 254 259 253 251 246 240 238 236 238 239 233 235 239 244 245 246 244 238 230 221 223 216 210 206 214 201 223 207 188 189 138 167 167 177
289 291 282 267 274 276 287 282 262 251 245 242 243 250 238 229 239 235 222 225 230 232 238 243 248 248 249 252 245 228 204 208 211 204 194 215 196 237 178 157 165 164 153 176
319 291 318 249 254 263 255 259 261 243 228 241 251 239 247 221 235 288 245 233 226 233 243 244 238 238 232 230 237 229 199 201 199 193 187 199 204 189 161 155 178 157 161 176
331 310 354 356 284 272 233 297 240 251 221 235 232 233 227 249 251 133 307 304 141 203 240 242 253 248 242 235 222 214 192 193 181 180 183 186 170 177 167 195 158 171 164 165
318 308 282 289 270 272 266 208 240 265 270 296 291 223 229 225 236 245 237 191 160 251 262 261 266 268 255 255 208 197 192 176 171 166 170 163 177 163 167 133 156 142 144 125
298 294 295 321 303 253 264 272 269 287 264 259 267 270 211 190 202 194 189 185 149 228 275 285 311 291 265 228 186 182 169 159 164 158 157 165 156 157 137 149 157 145 131 150
296 300 292 231 238 285 245 257 241 251 268 296 265 252 239 198 195 199 194 116 118 328 325 6 29 317 256 188 161 163 157 158 154 158 160 150 151 144 149 152 142 138 149 150
320 286 291 285 249 236 251 255 208 249 255 245 253 299 308 132 130 184 115 98 70 339 352 3 64 331 226 169 148 154 154 153 158 158 148 150 147 149 148 145 146 146 162 171
341 292 305 291 314 145 229 298 214 250 273 268 282 276 290 117 120 124 126 110 11 343 347 4 70 46 235 157 155 152 154 155 151 149 148 148 149 147 146 146 145 160 160 166
310 273 261 279 293 150 265 294 285 280 256 281 260 207 259 159 140 141 126 42 348 317 323 15 14 71 234 161 154 150 157 147 152 151 150 149 149 147 144 145 157 159 167 161
235 264 269 273 276 274 268 262 275 274 259 269 285 321 297 312 321 357 7 319 298 305 336 4 350 113 198 307 149 154 146 152 153 150 147 147 144 146 150 154 156 162 164 172
264 274 285 284 283 276 269 255 253 261 269 268 269 268 261 242 274 302 304 287 287 299 328 325 338 135 144 288 168 150 152 152 153 149 144 152 152 151 130 159 155 160 167 174
283 273 291 278 305 298 271 284 245 242 241 253 277 283 291 276 271 284 293 299 282 285 291 303 321 310 145 210 254 161 153 156 150 152 153 152 154 129 150 151 167 164 169 138
253 269 274 271 294 260 270 335 354 323 302 215 293 291 303 298 303 292 292 279 272 285 291 293 299 320 149 180 169 173 155 154 160 153 153 155 164 156 160 163 175 165 148 168
215 239 274 269 254 277 285 307 304 340 293 308 304 286 288 297 306 297 261 267 276 269 276 279 287 202 152 164 181 183 161 163 161 157 158 163 157 155 153 144 175 140 151 168
189 210 239 261 268 271 81 61 329 338 281 61 320 293 287 305 292 277 9 338 232 317 326 303 299 342 158 163 202 171 164 169 166 159 165 164 153 154 137 148 153 166 153 162
279 175 221 245 257 268 102 303 261 254 359 292 312 302 296 275 264 318 315 314 320 305 292 281 264 238 174 167 210 172 165 173 167 161 161 149 107 130 147 133 141 137 159 152
223 289 229 247 266 302 199 313 222 317 310 303 296 289 276 272 273 283 293 292 291 292 280 267 242 159 171 175 212 170 169 172 164 163 160 120 124 146 146 134 137 148 150 149
280 292 275 219 265 311 288 347 296 306 279 288 282 282 282 286 272 267 276 279 275 272 273 263 224 153 172 176 211 167 172 172 165 158 150 131 139 144 133 148 148 151 168 160
300 298 256 293 267 306 333 336 311 300 290 283 268 270 263 268 264 257 259 258 260 257 251 235 189 158 178 180 199 164 173 176 161 152 149 136 142 140 138 142 176 162 161 175
279 316 279 285 305 322 314 315 310 296 294 287 275 261 260 254 253 248 253 259 270 264 254 161 191 168 181 195 178 160 178 171 153 151 153 153 135 166 134 111 118 181 99 50
293 284 302 286 298 313 318 354 322 324 327 299 272 264 251 248 254 262 271 248 255 261 272 224 181 184 171 189 165 165 177 160 155 158 160 175 150 164 136 144 116 49 55 56